Weather History for Madison, SD

Change the Weather History Date:

Monday, February 4, 2013

  Actual Average Record
Temperature  
Mean Temperature 14 °F -  
Max Temperature 24 °F 23 °F 41 °F (2012)
Min Temperature 6 °F 4 °F -2 °F (2014)
Degree Days  
Heating Degree Days 50    
Moisture  
Dew Point 15 °F    
Average Humidity 100    
Maximum Humidity 100    
Minimum Humidity 86    
Precipitation  
Precipitation 0.00 in - - ()
Sea Level Pressure  
Sea Level Pressure 29.88 in    
Wind  
Wind Speed 10 mph (SW)    
Max Wind Speed 17 mph    
Max Gust Speed 18 mph    
Visibility 10 miles    
Events Rain , Snow    
Averages and records for this station are not official NWS values.
T = Trace of Precipitation, MM = Missing Value Source: NWS Daily Summary

Daily Weather History Graph

Daily Weather History Graph

Search for Another Location

Airport:

Trip Planner

Search our weather history database for the weather conditions in past years. The results will help you decide how hot, cold, wet, or windy it might be!

Date:

Astronomy

Feb. 04, 2013 Rise Set
Actual Time 7:41 AM CST 5:43 PM CST
Civil Twilight 7:11 AM CST 6:13 PM CST
Nautical Twilight 6:37 AM CST 6:48 PM CST
Astronomical Twilight 6:03 AM CST 7:21 PM CST
Moon 2:21 AM CST (2/4) 12:04 PM CST (2/4)
Length of Visible Light 11h 02m
Length of Day
10h 01m
Last Quarter, 37% of the Moon is Illuminated
Feb 4
Last Quarter
Feb 10
New
Feb 17
First Quarter
Feb 25
Full
Mar 4
Last Quarter

Hourly Weather History & Observations

Time (CST) Temp. Windchill Dew Point Humidity Pressure Visibility Wind Dir Wind Speed Gust Speed Precip Events Conditions
12:00 AM 12.2 °F -1.8 °F 12.2 °F 100% 29.86 in 10.0 mi NE 11.5 mph 18.4 mph N/A   Unknown
12:20 AM 12.2 °F -3.1 °F 12.2 °F 100% 29.87 in 10.0 mi ENE 13.8 mph - N/A   Unknown
12:40 AM 12.2 °F -1.8 °F 12.2 °F 100% 29.87 in 10.0 mi NE 11.5 mph - N/A   Unknown
1:00 AM 14.0 °F 1.2 °F 14.0 °F 100% 29.88 in 10.0 mi NE 10.4 mph - N/A   Unknown
1:20 AM 14.0 °F 0.5 °F 14.0 °F 100% 29.88 in 10.0 mi NE 11.5 mph - N/A   Unknown
1:40 AM 14.0 °F -0.8 °F 14.0 °F 100% 29.89 in 10.0 mi NNE 13.8 mph - N/A   Unknown
2:00 AM 12.2 °F -2.5 °F 12.2 °F 100% 29.90 in 10.0 mi NNE 12.7 mph - N/A Rain Light Freezing Rain
2:20 AM 12.2 °F -2.5 °F 12.2 °F 100% 29.90 in 10.0 mi NNE 12.7 mph - N/A   Unknown
2:40 AM 10.4 °F -4.1 °F 10.4 °F 100% 29.91 in 10.0 mi NNE 11.5 mph - N/A Rain Light Freezing Rain
3:00 AM 10.4 °F -4.1 °F 10.4 °F 100% 29.91 in 10.0 mi NNE 11.5 mph - N/A   Unknown
4:40 AM 10.4 °F -2.4 °F 10.4 °F 100% 29.95 in 10.0 mi NNE 9.2 mph - N/A   Unknown
5:00 AM 10.4 °F -2.4 °F 10.4 °F 100% 29.96 in 10.0 mi North 9.2 mph - N/A Snow Light Snow
5:20 AM 10.4 °F -2.4 °F 10.4 °F 100% 29.95 in 10.0 mi NNE 9.2 mph - N/A Snow Light Snow
5:40 AM 8.6 °F -3.7 °F 8.6 °F 100% 29.95 in 10.0 mi NNE 8.1 mph - N/A   Unknown
6:00 AM 8.6 °F -4.7 °F 8.6 °F 100% 29.96 in 10.0 mi North 9.2 mph - N/A   Unknown
6:40 AM 6.8 °F -5.9 °F 6.8 °F 100% 29.96 in 10.0 mi NNE 8.1 mph - N/A   Unknown
7:00 AM 6.8 °F -4.8 °F 6.8 °F 100% 29.96 in 10.0 mi NNE 6.9 mph - N/A   Unknown
7:20 AM 6.8 °F -4.8 °F 6.8 °F 100% 29.96 in 10.0 mi NE 6.9 mph - N/A   Unknown
7:40 AM 6.8 °F -3.5 °F 6.8 °F 100% 29.98 in 10.0 mi NNE 5.8 mph - N/A   Unknown
8:00 AM 6.8 °F -3.5 °F 6.8 °F 100% 29.99 in 10.0 mi North 5.8 mph - N/A   Unknown
8:20 AM 6.8 °F -2.0 °F 6.8 °F 100% 30.00 in 10.0 mi North 4.6 mph - N/A   Unknown
8:40 AM 6.8 °F -2.0 °F 6.8 °F 100% 30.02 in 10.0 mi North 4.6 mph - N/A   Unknown
9:00 AM 6.8 °F -0.1 °F 6.8 °F 100% 30.00 in 10.0 mi NNE 3.5 mph - N/A   Unknown
9:20 AM 6.8 °F -0.1 °F 6.8 °F 100% 29.99 in 10.0 mi ENE 3.5 mph - N/A   Unknown
9:40 AM 8.6 °F - 8.6 °F 100% 29.98 in 10.0 mi Calm Calm - N/A   Unknown
10:00 AM 8.6 °F 2.0 °F 8.6 °F 100% 29.97 in 10.0 mi SSW 3.5 mph - N/A   Unknown
10:20 AM 10.4 °F - 10.4 °F 100% 29.97 in 10.0 mi Calm Calm - N/A   Unknown
10:40 AM 12.2 °F - 10.4 °F 92% 29.97 in 10.0 mi Calm Calm - N/A   Unknown
11:00 AM 14.0 °F 6.5 °F 10.4 °F 86% 29.97 in 10.0 mi West 4.6 mph - N/A   Unknown
11:20 AM 14.0 °F 5.1 °F 14.0 °F 100% 29.97 in 10.0 mi WSW 5.8 mph - N/A   Unknown
11:40 AM 14.0 °F 5.1 °F 14.0 °F 100% 29.96 in 10.0 mi WNW 5.8 mph - N/A   Unknown
12:00 PM 15.8 °F 7.2 °F 15.8 °F 100% 29.96 in 10.0 mi WSW 5.8 mph - N/A Snow Light Snow
12:20 PM 15.8 °F 4.2 °F 15.8 °F 100% 29.96 in 10.0 mi WSW 9.2 mph - N/A Snow Light Snow
12:40 PM 15.8 °F 7.2 °F 15.8 °F 100% 29.94 in 10.0 mi WSW 5.8 mph - N/A   Unknown
1:00 PM 15.8 °F 8.6 °F 15.8 °F 100% 29.93 in 10.0 mi SSW 4.6 mph - N/A   Unknown
1:20 PM 15.8 °F 4.2 °F 15.8 °F 100% 29.93 in 10.0 mi SW 9.2 mph - N/A   Unknown
1:40 PM 15.8 °F 2.7 °F 15.8 °F 100% 29.92 in 10.0 mi SW 11.5 mph - N/A   Unknown
2:00 PM 17.6 °F 5.7 °F 17.6 °F 100% 29.91 in 10.0 mi SW 10.4 mph - N/A   Unknown
2:20 PM 17.6 °F 5.7 °F 17.6 °F 100% 29.89 in 10.0 mi SW 10.4 mph - N/A   Unknown
2:40 PM 17.6 °F 5.0 °F 17.6 °F 100% 29.88 in 10.0 mi SSW 11.5 mph - N/A   Unknown
3:00 PM 17.6 °F 5.7 °F 17.6 °F 100% 29.87 in 10.0 mi SW 10.4 mph - N/A   Unknown
3:20 PM 17.6 °F 4.3 °F 17.6 °F 100% 29.86 in 10.0 mi SW 12.7 mph - N/A   Unknown
3:40 PM 19.4 °F 6.6 °F 19.4 °F 100% 29.85 in 10.0 mi SSW 12.7 mph - N/A   Unknown
4:00 PM 19.4 °F 7.2 °F 19.4 °F 100% 29.86 in 10.0 mi SSW 11.5 mph - N/A   Unknown
4:20 PM 17.6 °F 4.3 °F 17.6 °F 100% 29.85 in 10.0 mi SW 12.7 mph 18.4 mph N/A   Unknown
4:40 PM 17.6 °F 4.3 °F 17.6 °F 100% 29.83 in 10.0 mi SSW 12.7 mph - N/A   Unknown
5:00 PM 19.4 °F 6.0 °F 19.4 °F 100% 29.81 in 10.0 mi SSW 13.8 mph - N/A   Unknown
5:20 PM 19.4 °F 6.0 °F 19.4 °F 100% 29.80 in 10.0 mi SSW 13.8 mph - N/A   Unknown
5:40 PM 19.4 °F 6.0 °F 19.4 °F 100% 29.79 in 10.0 mi SSW 13.8 mph - N/A   Unknown
6:00 PM 19.4 °F 7.2 °F 19.4 °F 100% 29.78 in 10.0 mi SSW 11.5 mph - N/A   Unknown
6:20 PM 19.4 °F 7.2 °F 19.4 °F 100% 29.79 in 10.0 mi SSW 11.5 mph - N/A   Unknown
6:40 PM 19.4 °F 4.5 °F 19.4 °F 100% 29.81 in 10.0 mi SW 17.3 mph - N/A   Unknown
7:00 PM 19.4 °F 5.0 °F 19.4 °F 100% 29.81 in 10.0 mi SW 16.1 mph - N/A   Unknown
7:20 PM 19.4 °F 7.2 °F 19.4 °F 100% 29.81 in 10.0 mi SW 11.5 mph - N/A   Unknown
7:40 PM 19.4 °F 6.0 °F 19.4 °F 100% 29.79 in 10.0 mi SSW 13.8 mph - N/A   Unknown
8:00 PM 19.4 °F 6.6 °F 19.4 °F 100% 29.78 in 10.0 mi SSW 12.7 mph - N/A   Unknown
8:40 PM 19.4 °F 6.0 °F 19.4 °F 100% 29.76 in 10.0 mi SSW 13.8 mph - N/A   Unknown
9:00 PM 19.4 °F 6.6 °F 19.4 °F 100% 29.75 in 10.0 mi SSW 12.7 mph - N/A   Unknown
9:20 PM 19.4 °F 6.6 °F 19.4 °F 100% 29.74 in 10.0 mi SSW 12.7 mph - N/A   Unknown
9:40 PM 19.4 °F 6.6 °F 19.4 °F 100% 29.74 in 10.0 mi SSW 12.7 mph - N/A   Unknown
10:00 PM 19.4 °F 7.2 °F 19.4 °F 100% 29.73 in 10.0 mi SSW 11.5 mph - N/A   Unknown
10:20 PM 19.4 °F 6.0 °F 19.4 °F 100% 29.72 in 10.0 mi SSW 13.8 mph - N/A   Unknown
10:40 PM 21.2 °F 8.9 °F 21.2 °F 100% 29.71 in 10.0 mi SSW 12.7 mph - N/A   Unknown
11:00 PM 21.2 °F 9.5 °F 21.2 °F 100% 29.71 in 10.0 mi SSW 11.5 mph - N/A   Unknown
11:20 PM 23.0 °F 11.1 °F 23.0 °F 100% 29.71 in 10.0 mi SW 12.7 mph - N/A   Unknown
11:40 PM 24.8 °F 12.4 °F 24.8 °F 100% 29.71 in 10.0 mi SW 15.0 mph - N/A   Unknown